Showing default

UNISAT 6, 40012

Orbit data source: Space-Track

UNISAT 6, 40012 is a payload satellite owned by GAUSS SrI (IT) in SSO that was launched on Thu, 19 Jun 2014 UTC via a DNEPR launch vehicle from the Orenburg, Russia (OREN). Payload-class satellites include a variety of spacecraft equipped with specific instruments for various scientific and technological missions. These include communications satellites like Starlink; space stations such as the ISS; scientific satellites like the Hubble; Earth observation satellites from companies like Planet Labs, Umbra, and HawkEye 360; GPS; miniature CubeSats for education and research; and military/defense satellites.

Loading next visibility...
Identifier
40012, 2014-033C
Orbit
SSO
Country
Flag of ITIT
Related business
Manufacturer
GAUSS SrI
Mission
Operational Amateur Technology
Bus & Motor
UNISAT, Unknown motor
Mass
26 kg wet, ~19 kg dry
Launch date (UTC)
2014-06-19 (12 years ago)
Launch vehicle
DNEPR
Launch site
Orenburg, Russia (OREN)
Object type
Payload
Rocket body
Debris
Shape & HBR
Box + 4 Pan, 0.5 m
Radar Cross Section
0.238 m², Medium (>0.1 m² and < 1m²)

Expand to show TLE details & history
Last TLE update: 2 days ago

TLE from 2 days ago
0 UNISAT 6
1 40012U 14033C   26171.36053183  .00002275  00000-0  24761-3 0  9993
2 40012  97.7886 324.0163 0046103  59.1479 301.4261 14.88258832646633
Epoch: 2026-06-20T08:39Z
TLE epoch observation values (Epoch: 2026-06-20T08:39:09.950Z)
Latitude
-0.00001°
Longitude
-74.35143°
Altitude
589.734 km
Speed
7.574 km/s
True Right ascension
21h 36m 03s
True Declination
0° 00' 00"
Sunlit
Object was in full shadow at epoch
Visualization orbit readout
Latitude
Unknown
Longitude
Unknown
Altitude
Unknown
Speed
Unknown
Apparent Right ascension
Unknown
Apparent Declination
Unknown
Sunlit
N/A
Visualization observer readout
Local Sidereal Time
21:43:09
Azimuth
Unknown
Elevation
Unknown
Doppler factor
Unknown
Orbital elements
Apogee altitude
632.574 km
Perigee altitude
568.227 km
Semi-major axis
6,978.537 km
Eccentricity
0.00461
Inclination
97.7886°
RAAN
324.0163°
Arg. of periapsis
59.1479°
True anomaly
300.97394°
Mean anomaly
301.4261°
Eccentric anomaly
301.20016°
Mean motion
3.72303 °/min
Orbital period
96.7 mins
BSTAR
0.00024761
Loading maneuver chart data...
Computing Atmospheric mass density...
Loading historical data...
Loading historical data...
Loading historical data...
Loading historical data...
Loading historical data...
Loading historical data...
Loading historical data...

Documentation

Showing up to 5 results
|